Wind_Speed
20 21 22 23 23 21 22 25 28 29 31 29 28 28 28 23 22 23 19 16 12 7 9 10 16 29 31 31 22 15 12 16 15 12 10 8 7 6 3 3 3 4 5 8 9 9 12 15 17
19 21 23 24 25 24 23 25 26 33 34 33 32 29 28 28 26 24 23 19 16 16 13 11 8 25 35 25 23 18 14 16 15 14 12 10 8 7 4 3 2 2 4 6 6 7 10 14 17
22 23 24 24 25 24 27 27 29 31 32 35 36 32 30 32 30 27 25 22 20 19 20 19 19 21 25 23 24 22 17 17 16 16 14 12 10 7 5 3 1 0 2 4 4 6 10 13 17
23 24 26 26 29 28 28 29 32 33 34 34 34 35 34 34 32 30 27 25 23 21 20 22 28 30 25 24 22 22 20 19 19 18 16 14 11 9 7 5 2 1 2 3 5 7 11 14 18
23 24 26 26 29 29 30 34 35 35 35 37 35 35 37 38 35 33 28 25 23 17 19 19 33 31 25 25 26 24 21 20 20 21 18 16 13 10 8 8 4 3 3 4 6 8 12 15 18
24 26 28 29 32 31 31 35 36 37 39 39 38 35 38 37 40 36 31 26 23 19 15 15 29 27 25 25 25 23 22 22 22 21 20 17 15 12 11 10 6 5 4 4 6 9 12 15 19
25 26 28 29 35 35 35 36 41 41 39 41 38 35 42 41 39 37 35 30 26 22 22 22 32 28 25 25 24 23 23 25 25 24 22 18 17 14 13 11 9 7 5 6 5 9 13 16 20
27 28 29 31 34 37 35 38 43 44 44 42 40 38 43 46 41 40 38 35 30 27 26 29 33 34 32 27 25 24 23 24 26 25 23 20 19 16 15 14 12 8 7 7 8 10 14 17 21
30 32 32 34 34 40 36 38 44 46 46 46 46 41 42 44 44 43 42 39 35 32 32 33 38 37 34 31 28 27 26 25 27 26 24 21 20 18 15 15 14 9 8 8 9 12 16 17 21
33 32 35 35 35 42 41 39 43 46 48 48 48 47 49 48 48 46 44 44 38 36 34 36 39 40 36 34 32 31 29 28 27 27 26 24 23 19 17 17 14 11 8 8 11 13 16 18 22
37 37 36 37 36 40 44 40 44 46 48 51 48 49 53 54 50 49 48 47 43 40 40 40 41 39 40 40 35 32 32 31 30 29 29 26 24 21 19 17 15 13 10 10 12 14 17 18 22
37 38 38 39 38 41 41 39 39 45 47 51 49 49 51 54 52 54 53 50 48 44 46 43 44 48 43 39 37 35 36 34 33 31 30 27 25 22 19 18 18 15 11 12 12 15 17 18 22
34 34 34 36 36 37 40 42 41 41 45 50 49 49 49 52 56 57 56 54 51 49 48 49 44 42 49 44 40 38 38 38 37 35 32 30 27 23 20 22 21 15 13 12 12 15 16 18 21
32 34 36 35 36 38 39 41 41 38 44 46 48 47 48 48 55 58 59 58 56 55 52 47 43 42 44 51 42 40 41 39 42 38 36 32 27 22 24 23 21 16 13 13 12 14 15 18 21
32 32 33 33 34 36 34 35 38 36 38 39 45 46 46 43 49 59 62 63 62 63 61 56 51 45 45 44 46 46 44 45 44 39 35 32 27 25 26 25 23 18 15 14 13 13 15 18 21
29 29 29 27 23 21 21 20 27 28 35 37 40 43 43 43 43 55 65 65 66 68 68 66 60 54 53 51 51 49 50 49 46 43 39 31 28 25 26 26 23 19 15 15 14 11 13 17 21
30 27 22 19 20 21 22 24 31 28 31 37 42 44 41 41 44 47 65 67 68 71 71 70 64 59 60 59 57 54 53 50 46 42 36 31 31 28 27 26 23 19 17 17 15 11 13 17 21
34 27 25 23 22 21 24 28 31 34 35 36 43 49 48 40 41 43 63 70 71 72 74 71 66 61 60 61 60 60 59 55 49 42 38 35 33 31 28 24 22 18 18 18 15 15 18 19 21
33 28 27 27 26 27 27 29 35 40 42 42 39 49 54 47 43 48 51 70 72 73 75 70 67 62 64 62 61 60 57 57 47 43 41 36 34 30 25 24 22 20 20 17 16 16 18 21 21
31 27 25 29 29 30 30 25 36 40 45 47 48 46 54 52 46 47 46 69 73 75 75 75 69 64 63 63 61 59 55 56 51 48 43 40 37 33 30 27 23 22 21 21 21 21 20 24 21
25 25 20 22 27 27 26 27 34 38 43 49 49 49 52 53 49 45 50 58 73 78 74 76 72 66 63 66 66 60 57 57 54 46 42 39 38 36 33 29 25 23 24 23 21 21 22 21 21
21 19 21 26 25 29 33 33 38 36 42 42 47 45 46 52 53 48 45 49 70 78 78 78 76 68 68 70 65 61 56 55 47 47 42 43 41 37 34 28 26 24 22 20 17 18 19 21 19
24 25 26 26 26 31 33 36 33 35 34 30 37 43 42 49 54 53 46 44 63 74 81 81 80 77 71 73 73 68 68 46 46 52 45 45 39 39 34 30 27 24 20 17 18 18 18 19 17
32 26 26 27 29 30 29 33 30 21 25 25 20 25 36 43 51 50 49 48 55 71 79 79 79 80 76 73 77 78 71 55 44 50 49 53 51 38 30 29 27 23 19 18 19 17 17 17 18
29 28 24 18 22 23 30 36 26 26 29 24 20 19 26 35 47 51 46 47 49 66 78 77 79 81 78 70 67 70 77 55 48 46 40 34 35 31 30 31 26 22 21 19 20 18 16 17 19
25 22 23 29 25 31 32 32 19 23 24 28 30 30 25 31 43 48 49 49 52 56 74 79 79 80 87 77 66 66 65 57 55 44 40 40 37 32 32 30 27 25 22 21 20 17 16 18 20
29 25 24 29 31 36 29 33 28 24 23 26 27 27 24 28 40 48 42 48 48 56 65 75 81 81 76 78 64 67 67 63 56 43 45 43 39 36 35 32 30 25 25 23 22 18 19 20 20
28 30 30 30 32 32 24 29 25 21 21 20 22 21 16 22 34 44 46 49 53 55 58 71 76 73 69 58 64 53 45 48 49 46 46 43 43 41 39 34 34 30 29 24 22 20 19 21 20
33 30 31 31 29 31 33 21 22 22 21 17 19 20 17 18 22 33 45 49 53 56 59 60 63 55 60 72 51 44 43 41 50 50 47 48 49 46 40 39 37 37 27 24 22 22 21 20 20
29 29 25 29 30 31 32 30 30 20 18 22 22 20 19 18 23 26 33 40 51 57 65 61 56 49 55 45 55 43 47 43 37 50 48 52 53 49 44 38 39 36 24 24 23 22 22 20 20
Wind_Direction
249 250 249 247 246 243 242 241 235 237 242 244 243 243 250 251 248 252 257 258 260 288 287 305 253 220 205 225 228 210 227 239 228 211 205 200 181 183 163 112 91 77 56 49 42 27 17 12 11
252 252 252 251 249 248 247 241 237 235 239 238 242 243 245 253 252 250 253 254 257 254 250 265 278 203 206 219 221 202 210 237 232 216 209 205 198 193 181 150 110 81 57 49 35 15 12 5 6
255 253 255 255 254 252 248 239 242 241 240 239 240 241 244 244 250 254 256 258 259 259 261 246 222 223 208 210 207 197 208 228 233 225 215 210 215 200 202 193 189 60 45 42 12 357 357 0 1
261 259 256 255 257 252 253 252 246 244 242 242 243 240 242 244 247 248 252 258 262 269 278 256 210 215 219 211 206 196 204 222 232 231 225 221 223 214 212 225 215 272 339 355 341 342 346 353 353
259 259 259 255 256 254 251 251 250 246 244 241 240 240 243 243 242 244 245 251 263 271 270 263 202 208 220 214 208 201 206 220 231 236 227 227 226 224 228 235 231 240 285 322 331 334 337 343 342
257 257 258 257 255 250 249 248 250 248 246 245 240 237 241 244 242 243 241 242 248 253 236 201 189 202 223 224 219 206 204 221 228 235 235 232 229 224 230 236 241 257 284 305 330 318 326 333 335
262 261 259 256 257 254 247 249 250 250 249 246 247 239 238 240 245 240 241 235 237 242 235 193 184 200 217 224 222 215 211 214 224 226 231 230 234 224 229 235 241 257 277 291 308 306 317 329 334
263 261 259 256 257 258 250 249 250 251 251 251 248 241 237 239 240 240 238 234 230 233 225 230 212 201 201 216 220 219 218 221 226 228 232 228 232 228 224 231 238 244 266 285 300 305 313 326 334
268 265 263 262 261 262 256 251 252 251 250 249 250 245 244 238 235 236 236 233 225 224 233 232 235 215 196 202 213 219 220 222 232 231 232 232 231 231 229 232 240 249 264 284 295 302 309 324 337
274 270 266 266 263 265 262 259 257 257 256 253 249 245 241 239 233 232 232 233 224 222 226 237 237 223 211 206 210 217 220 222 229 233 232 228 229 227 228 234 243 252 266 279 290 300 310 328 337
275 273 270 266 265 266 268 261 258 258 260 260 253 247 241 238 234 229 225 230 223 218 223 232 230 215 212 210 206 214 221 224 225 230 232 228 230 225 223 233 242 251 260 269 286 300 313 332 336
276 275 274 271 270 270 271 270 264 261 258 259 257 251 245 237 230 227 226 222 224 216 220 222 226 218 218 212 208 211 216 221 225 226 230 229 228 227 223 229 240 246 255 269 285 294 314 334 335
286 282 277 275 273 271 270 269 267 266 261 258 255 254 247 239 229 226 224 219 221 214 215 218 221 220 219 216 211 213 219 218 221 222 225 226 225 225 224 228 236 243 250 267 278 293 316 329 334
284 278 275 274 272 269 267 269 268 264 264 260 256 250 252 239 232 222 221 217 215 208 211 213 222 228 221 217 215 212 217 222 222 220 223 222 224 220 225 230 238 243 248 261 274 290 313 326 331
289 284 281 279 275 270 271 273 272 267 259 255 257 253 251 248 231 223 219 216 210 209 211 214 222 230 227 221 223 222 220 221 223 221 224 224 219 218 220 227 233 237 245 256 270 289 314 326 329
294 291 284 280 270 268 276 281 281 273 264 255 249 250 250 251 239 223 218 215 212 210 214 219 223 227 232 232 224 219 221 221 222 228 224 222 226 222 222 227 233 238 244 253 266 297 313 324 331
302 290 276 262 261 275 277 277 282 285 277 262 250 246 245 246 246 225 217 216 213 210 214 218 220 227 233 232 223 220 219 218 220 220 221 226 225 222 227 230 234 239 243 252 265 289 312 328 322
305 289 267 265 270 277 279 279 283 285 281 276 259 248 243 241 244 235 216 214 213 212 213 217 217 223 231 228 227 226 224 222 222 220 223 222 222 221 225 233 237 239 247 254 272 286 299 314 317
308 294 263 260 265 279 282 284 288 286 276 273 268 252 244 241 237 236 222 213 213 212 213 216 216 220 230 226 233 228 230 229 226 226 221 221 220 219 219 228 234 236 243 260 275 285 303 311 308
311 290 285 265 270 278 283 290 291 286 282 276 271 267 245 238 234 233 227 213 211 213 213 212 215 220 221 227 225 225 225 227 224 224 218 216 216 216 217 223 229 229 239 256 267 283 300 301 305
304 289 281 273 274 284 288 297 296 290 284 278 267 262 243 232 227 230 226 216 212 213 211 213 214 217 222 226 225 225 226 221 221 225 219 218 226 221 216 220 226 234 236 250 264 286 293 294 300
303 286 280 285 285 293 299 292 304 300 292 280 268 259 245 228 223 223 221 219 212 213 211 212 214 217 222 224 224 227 228 218 222 220 217 228 222 229 217 219 228 235 241 251 269 276 285 293 293
304 284 278 282 296 294 302 303 310 302 292 278 274 263 251 230 221 222 219 217 214 212 214 214 213 215 221 222 224 229 231 208 213 219 226 229 228 231 224 223 232 240 241 251 261 264 291 292 284
323 296 286 287 292 303 311 318 319 297 289 278 270 264 258 237 223 219 218 215 214 212 215 216 216 218 221 224 227 230 227 213 216 222 229 237 236 227 219 226 231 237 240 248 246 265 289 288 278
324 309 293 302 307 311 311 319 309 298 295 279 265 260 253 246 227 219 218 216 213 213 214 216 215 216 218 219 226 229 216 208 212 220 228 232 220 222 225 230 233 231 242 241 250 267 283 277 274
332 314 296 294 295 299 307 321 305 295 284 281 280 278 254 241 231 223 224 220 215 216 216 215 216 216 221 220 213 213 205 208 213 214 218 220 222 222 226 230 230 229 235 241 254 265 274 269 273
332 317 306 297 297 305 314 329 317 290 285 281 278 280 267 231 226 224 219 222 218 217 219 215 219 221 225 219 206 206 202 207 206 210 219 223 225 223 224 224 227 228 230 245 260 266 268 270 272
325 316 302 301 301 297 301 324 311 294 294 287 271 281 265 243 217 221 220 218 218 215 218 220 220 228 227 205 199 198 211 214 214 213 223 226 227 228 229 226 226 225 231 246 257 264 264 269 273
329 320 304 294 291 293 301 315 305 284 288 271 272 274 254 230 228 218 224 222 213 213 219 220 225 227 228 222 207 209 212 224 226 211 217 229 229 227 225 227 226 230 221 247 256 260 261 268 275
330 323 301 293 294 292 294 306 319 275 266 262 261 275 255 236 230 227 225 225 227 209 216 219 225 217 224 222 231 217 223 232 230 207 221 227 227 230 229 228 231 232 226 244 254 257 259 267 274
Height
5871 5873 5874 5876 5880 5880 5882 5884 5885 5884 5884 5887 5890 5892 5893 5897 5899 5901 5901 5902 5902 5903 5903 5902 5898 5898 5906 5908 5911 5913 5916 5919 5919 5920 5920 5920 5919 5919 5919 5918 5916 5915 5914 5913 5912 5910 5909 5908 5906
5868 5869 5870 5871 5874 5875 5878 5877 5879 5878 5879 5881 5884 5888 5891 5892 5893 5895 5896 5898 5899 5899 5900 5900 5899 5898 5903 5905 5909 5910 5913 5917 5917 5918 5918 5918 5917 5917 5918 5917 5916 5915 5914 5913 5912 5910 5909 5907 5905
5863 5865 5866 5867 5868 5871 5872 5870 5872 5873 5874 5876 5879 5883 5886 5885 5888 5890 5893 5894 5895 5895 5895 5897 5899 5900 5900 5903 5904 5906 5910 5914 5915 5916 5915 5915 5916 5916 5917 5916 5916 5916 5914 5913 5911 5909 5908 5906 5904
5858 5860 5861 5862 5861 5864 5866 5864 5866 5868 5869 5870 5874 5877 5880 5880 5883 5886 5889 5890 5891 5891 5890 5889 5893 5896 5899 5901 5902 5903 5906 5911 5913 5913 5912 5912 5914 5915 5916 5915 5915 5915 5914 5912 5910 5908 5907 5905 5903
5853 5854 5855 5857 5855 5857 5857 5856 5858 5860 5862 5865 5868 5872 5872 5874 5878 5880 5884 5887 5888 5889 5886 5882 5887 5893 5897 5899 5899 5900 5903 5907 5910 5911 5910 5910 5912 5914 5915 5914 5914 5913 5912 5911 5911 5908 5906 5904 5901
5849 5849 5850 5851 5848 5850 5851 5849 5849 5851 5853 5856 5861 5868 5866 5869 5870 5876 5880 5883 5885 5887 5887 5879 5886 5892 5895 5897 5898 5898 5900 5904 5906 5907 5908 5909 5910 5912 5913 5913 5912 5911 5911 5909 5909 5907 5905 5903 5901
5843 5843 5843 5844 5840 5841 5844 5843 5840 5841 5845 5847 5854 5861 5859 5861 5864 5869 5873 5878 5880 5883 5885 5886 5881 5886 5890 5894 5896 5896 5897 5899 5901 5903 5905 5906 5909 5909 5910 5911 5911 5910 5910 5909 5907 5905 5903 5901 5899
5835 5835 5836 5835 5833 5832 5836 5836 5832 5833 5836 5841 5846 5853 5852 5849 5860 5862 5866 5870 5874 5877 5879 5881 5880 5878 5883 5888 5892 5894 5895 5897 5898 5900 5902 5903 5906 5907 5907 5908 5908 5908 5908 5907 5906 5903 5902 5899 5897
5827 5827 5827 5826 5826 5819 5825 5827 5823 5823 5825 5828 5833 5843 5843 5846 5851 5856 5859 5862 5867 5870 5872 5874 5876 5876 5874 5880 5886 5889 5891 5893 5896 5898 5899 5901 5904 5905 5905 5905 5906 5906 5905 5905 5903 5901 5900 5897 5896
5817 5819 5817 5817 5817 5809 5812 5815 5815 5813 5813 5817 5821 5829 5832 5834 5840 5846 5852 5855 5860 5863 5864 5866 5869 5872 5873 5875 5880 5884 5887 5888 5891 5895 5896 5897 5900 5902 5903 5903 5903 5903 5903 5902 5901 5899 5897 5895 5895
5807 5806 5806 5806 5806 5801 5799 5804 5804 5803 5802 5802 5810 5815 5820 5822 5829 5836 5842 5846 5852 5855 5857 5861 5864 5866 5868 5870 5873 5878 5883 5885 5887 5890 5892 5894 5896 5898 5899 5900 5900 5901 5901 5899 5899 5897 5895 5893 5891
5796 5794 5794 5793 5794 5792 5790 5792 5795 5793 5793 5790 5795 5800 5807 5813 5819 5824 5829 5838 5843 5847 5849 5854 5857 5859 5863 5867 5868 5871 5875 5878 5882 5884 5888 5890 5892 5895 5896 5896 5896 5897 5898 5897 5896 5895 5893 5891 5888
5786 5784 5783 5782 5782 5782 5779 5779 5781 5783 5781 5780 5782 5784 5792 5800 5806 5811 5820 5827 5834 5840 5842 5846 5850 5852 5856 5860 5863 5865 5871 5872 5875 5878 5882 5886 5888 5890 5891 5892 5892 5893 5895 5894 5893 5892 5891 5889 5886
5776 5773 5770 5771 5770 5769 5770 5767 5768 5770 5770 5770 5771 5775 5776 5786 5794 5799 5808 5816 5825 5831 5835 5839 5844 5846 5850 5854 5858 5859 5864 5868 5870 5872 5877 5880 5884 5885 5887 5887 5889 5889 5891 5891 5890 5889 5888 5887 5884
5765 5764 5760 5760 5760 5759 5758 5758 5756 5758 5759 5761 5761 5763 5766 5771 5781 5788 5794 5803 5812 5820 5827 5831 5836 5842 5846 5848 5850 5854 5858 5862 5866 5868 5871 5876 5879 5880 5881 5882 5884 5885 5887 5887 5887 5886 5886 5884 5880
5758 5755 5752 5750 5750 5752 5750 5751 5747 5747 5747 5751 5751 5751 5756 5759 5766 5776 5782 5791 5800 5808 5815 5821 5828 5835 5838 5843 5845 5847 5852 5856 5860 5864 5868 5872 5876 5877 5877 5878 5880 5882 5883 5883 5884 5883 5883 5881 5878
5751 5748 5746 5745 5743 5743 5743 5743 5739 5740 5739 5740 5742 5742 5743 5748 5752 5761 5770 5778 5788 5797 5803 5811 5818 5826 5830 5835 5838 5841 5845 5850 5855 5860 5865 5869 5872 5872 5873 5875 5877 5878 5879 5879 5880 5881 5879 5877 5876
5743 5740 5739 5737 5736 5736 5735 5734 5733 5729 5729 5729 5729 5731 5734 5738 5743 5748 5754 5764 5774 5784 5792 5800 5809 5816 5822 5826 5829 5833 5839 5844 5851 5857 5861 5865 5867 5867 5868 5871 5873 5875 5876 5877 5877 5878 5877 5875 5874
5735 5732 5731 5730 5729 5728 5728 5726 5723 5718 5716 5716 5718 5718 5722 5730 5733 5733 5744 5753 5762 5770 5779 5790 5800 5807 5813 5818 5823 5828 5835 5842 5848 5853 5857 5860 5862 5863 5863 5866 5868 5870 5872 5874 5875 5874 5874 5873 5872
5726 5723 5723 5722 5721 5721 5720 5719 5713 5708 5704 5703 5704 5705 5708 5718 5722 5723 5730 5739 5750 5759 5768 5777 5787 5797 5804 5810 5816 5821 5828 5836 5841 5845 5851 5854 5856 5857 5858 5861 5863 5865 5867 5870 5871 5871 5870 5869 5869
5720 5716 5716 5715 5713 5712 5711 5712 5701 5697 5693 5687 5686 5687 5692 5702 5709 5712 5718 5726 5736 5745 5755 5766 5776 5785 5792 5800 5807 5813 5820 5824 5833 5841 5847 5849 5853 5853 5854 5857 5859 5861 5862 5865 5866 5867 5867 5866 5866
5717 5713 5710 5708 5707 5705 5701 5701 5692 5685 5679 5673 5669 5673 5677 5687 5696 5701 5707 5714 5724 5734 5744 5753 5763 5774 5782 5789 5799 5809 5815 5822 5831 5836 5839 5842 5846 5848 5849 5852 5854 5856 5859 5861 5863 5863 5863 5863 5861
5711 5708 5705 5703 5701 5697 5693 5689 5686 5673 5666 5663 5659 5661 5665 5673 5683 5690 5697 5705 5712 5721 5731 5741 5752 5763 5771 5779 5789 5799 5807 5810 5819 5826 5832 5835 5841 5842 5844 5847 5850 5853 5855 5858 5859 5859 5859 5858 5857
5703 5700 5698 5695 5693 5690 5684 5679 5674 5667 5660 5656 5653 5653 5656 5662 5670 5679 5686 5695 5703 5711 5720 5731 5741 5751 5760 5769 5777 5788 5797 5807 5813 5821 5827 5830 5834 5837 5840 5843 5846 5848 5851 5853 5855 5855 5855 5854 5854
5697 5693 5691 5691 5689 5687 5677 5672 5664 5659 5654 5652 5648 5647 5649 5654 5659 5669 5677 5683 5691 5700 5709 5720 5730 5741 5749 5760 5764 5773 5784 5798 5805 5813 5818 5821 5828 5831 5835 5838 5841 5843 5847 5849 5851 5851 5850 5850 5850
5693 5689 5686 5681 5680 5676 5671 5665 5661 5654 5650 5645 5642 5641 5643 5645 5650 5658 5665 5673 5682 5689 5696 5709 5718 5730 5736 5747 5755 5768 5777 5788 5797 5803 5812 5817 5821 5825 5829 5832 5834 5838 5842 5846 5847 5847 5846 5847 5846
5688 5685 5681 5676 5672 5665 5662 5658 5652 5647 5644 5640 5637 5634 5633 5637 5641 5648 5657 5663 5671 5680 5687 5699 5707 5714 5725 5737 5745 5756 5766 5780 5787 5796 5805 5811 5816 5821 5822 5824 5829 5832 5837 5840 5842 5842 5842 5842 5841
5683 5679 5675 5670 5665 5659 5658 5652 5646 5642 5638 5635 5633 5630 5627 5629 5631 5636 5645 5653 5661 5670 5678 5683 5695 5703 5718 5728 5736 5747 5758 5769 5779 5789 5799 5806 5810 5813 5817 5819 5824 5826 5832 5835 5835 5837 5836 5837 5836
5677 5673 5667 5664 5660 5652 5647 5648 5640 5637 5634 5631 5629 5627 5625 5623 5624 5627 5633 5642 5652 5662 5667 5677 5683 5694 5705 5713 5728 5741 5751 5763 5773 5780 5789 5799 5804 5806 5809 5814 5816 5821 5824 5828 5831 5832 5832 5832 5832
5672 5666 5662 5655 5652 5646 5641 5638 5634 5629 5626 5624 5622 5621 5620 5618 5617 5620 5625 5630 5639 5652 5659 5668 5675 5689 5700 5708 5720 5735 5745 5754 5764 5771 5783 5791 5796 5799 5803 5806 5810 5817 5818 5822 5825 5827 5827 5827 5827